カタログに戻る

FENGYUN 1C DEB

運用中PO
NORAD 31071·DEBRIS·🇨🇳 China

打ち上げ May 10, 1999 から Taiyuan Satellite Launch Center

Loading…

次のパス (今後24時間)

TLE

最新Source: Space-Track

元期: Sep 13, 2026, 12:54 UTC

1 31071U 99025BFR 26256.53793314  .00002970  00000-0  69222-3 0  9995
2 31071  99.0353   0.7855 0055174 172.9298 187.2687 14.54730110694877

AllMySatでFENGYUN 1C DEBをリアルタイム追跡

Download on the App Store